Lake Sakakawea Weather Center

Moon Phase Calendar



Lake Sakakawea Water Level
Online Cameras

 


      

Current Conditions in Garrison
1/25/2022 5:38:14 PM

-1°F
Feels Like -12
Clear
Humidity
91%
Pressure
30.53"
Wind
5.1 mph (S)
Dew Point
-3°F
UV Index
0/10 (Low)
Visibility
6 mi

Hourly Forecast

Date & Time Tue, Jan 25
5:00 PM
Tue, Jan 25
6:00 PM
Tue, Jan 25
7:00 PM
Tue, Jan 25
8:00 PM
Tue, Jan 25
9:00 PM
Tue, Jan 25
10:00 PM
Tue, Jan 25
11:00 PM
Wed, Jan 26
12:00 AM
Wed, Jan 26
1:00 AM
Wed, Jan 26
2:00 AM
Wed, Jan 26
3:00 AM
Wed, Jan 26
4:00 AM
Wed, Jan 26
5:00 AM
Wed, Jan 26
6:00 AM
Wed, Jan 26
7:00 AM
Wed, Jan 26
8:00 AM
Wed, Jan 26
9:00 AM
Wed, Jan 26
10:00 AM
Wed, Jan 26
11:00 AM
Wed, Jan 26
12:00 PM
Wed, Jan 26
1:00 PM
Wed, Jan 26
2:00 PM
Wed, Jan 26
3:00 PM
Wed, Jan 26
4:00 PM
Wed, Jan 26
5:00 PM
Wed, Jan 26
6:00 PM
Wed, Jan 26
7:00 PM
Wed, Jan 26
8:00 PM
Wed, Jan 26
9:00 PM
Wed, Jan 26
10:00 PM
Wed, Jan 26
11:00 PM
Thu, Jan 27
12:00 AM
Thu, Jan 27
1:00 AM
Thu, Jan 27
2:00 AM
Thu, Jan 27
3:00 AM
Thu, Jan 27
4:00 AM
Thu, Jan 27
5:00 AM
Thu, Jan 27
6:00 AM
Thu, Jan 27
7:00 AM
Thu, Jan 27
8:00 AM
Thu, Jan 27
9:00 AM
Thu, Jan 27
10:00 AM
Thu, Jan 27
11:00 AM
Thu, Jan 27
12:00 PM
Thu, Jan 27
1:00 PM
Thu, Jan 27
2:00 PM
Thu, Jan 27
3:00 PM
Thu, Jan 27
4:00 PM
Condition
Clear

Clear

Clear

Clouds

Clouds

Clouds

Clouds

Clouds

Clouds

Clouds

Clouds

Clouds

Clouds

Clouds

Clouds

Clouds

Clouds

Clouds

Clouds

Clouds

Clouds

Clouds

Clouds

Clouds

Clouds

Clouds

Clouds

Clouds

Clouds

Clouds

Clouds

Clouds

Clouds

Clouds

Clouds

Clouds

Clouds

Clouds

Clouds

Clouds

Clouds

Clouds

Clouds

Clouds

Clouds

Clouds

Clouds

Clouds
Temperature -2°F-1°F-2°F-2°F0°F2°F5°F10°F13°F17°F19°F22°F26°F27°F27°F25°F26°F27°F30°F32°F33°F33°F32°F32°F31°F30°F31°F30°F29°F26°F24°F23°F22°F23°F22°F19°F15°F18°F18°F15°F13°F14°F15°F15°F15°F15°F15°F14°F
Feels Like -14°F-12°F-15°F-15°F-13°F-11°F-7°F-2°F1°F4°F6°F10°F13°F15°F14°F13°F14°F15°F18°F20°F21°F21°F20°F20°F18°F18°F18°F18°F16°F13°F11°F11°F10°F10°F10°F6°F4°F5°F6°F4°F2°F4°F5°F5°F7°F8°F8°F8°F
Cloudiness 3%3%6%14%34%41%55%63%100%100%100%100%100%100%48%59%72%79%83%84%24%23%20%17%24%35%100%100%100%100%98%98%100%100%100%89%75%73%88%92%91%89%91%92%100%100%100%100%
Visibility 6 mi6 mi6 mi6 mi6 mi6 mi6 mi6 mi6 mi6 mi6 mi6 mi6 mi6 mi6 mi6 mi6 mi6 mi6 mi6 mi6 mi6 mi6 mi6 mi6 mi6 mi6 mi6 mi6 mi6 mi6 mi6 mi6 mi6 mi6 mi6 mi6 mi6 mi1 mi2 mi4 mi2 mi0 mi1 mi1 mi1 mi3 mi6 mi
Precipitation 0%0%0%0%0%0%0%0%0%0%0%0%0%0%0%0%0%0%0%0%0%0%0%0%0%0%0%0%0%0%0%0%7%3%0%0%0%0%14%22%19%12%3%8%12%6%2%0%
Humidity 90%91%91%88%83%82%81%82%85%86%85%83%79%74%75%79%80%81%80%78%78%77%79%79%82%86%85%86%83%82%81%83%89%91%83%87%92%93%94%96%97%97%94%91%90%89%88%92%
Dew Point -4°F-3°F-4°F-4°F-4°F-2°F-2°F4°F8°F12°F15°F18°F20°F20°F20°F19°F21°F22°F24°F26°F26°F26°F26°F26°F26°F26°F27°F27°F24°F21°F18°F18°F19°F20°F17°F15°F12°F15°F15°F13°F11°F12°F13°F12°F11°F11°F11°F11°F
Pressure 30.53"30.53"30.53"30.47"30.42"30.36"30.24"30.15"30.09"30.03"29.94"29.91"29.85"29.8"29.8"29.8"29.8"29.8"29.77"29.8"29.77"29.8"29.8"29.83"29.85"29.91"29.94"29.97"30.03"30.06"30.09"30.15"30.18"30.21"30.24"30.3"30.33"30.33"30.36"30.42"30.45"30.47"30.5"30.53"30.53"30.5"30.5"30.5"
Wind Speed 5.8 mph5.1 mph6.5 mph8.8 mph9.5 mph10.4 mph11.5 mph14.2 mph14.9 mph15.1 mph16.5 mph16 mph16.2 mph17.3 mph16.2 mph15.3 mph15.4 mph15.6 mph16.3 mph17.8 mph19.2 mph21.2 mph20.8 mph21 mph20.3 mph19.5 mph20.1 mph19.8 mph18.7 mph18.3 mph16.7 mph13.1 mph12.6 mph15 mph14.3 mph11 mph9.2 mph11.3 mph10.4 mph8.1 mph7.1 mph6.4 mph7.5 mph6.6 mph5.3 mph4.5 mph4.1 mph3.4 mph
Wind
Direction
192°
SSW
188°
S
183°
S
184°
S
187°
S
187°
S
192°
SSW
196°
SSW
200°
SSW
205°
SSW
205°
SSW
223°
SW
232°
SW
243°
WSW
254°
WSW
258°
WSW
264°
W
265°
W
275°
W
282°
WNW
285°
WNW
296°
WNW
300°
WNW
301°
WNW
300°
WNW
303°
WNW
308°
NW
316°
NW
318°
NW
321°
NW
328°
NNW
320°
NW
310°
NW
313°
NW
324°
NW
311°
NW
297°
WNW
302°
WNW
313°
NW
316°
NW
320°
NW
348°
NNW
30°
NNE
40°
NE
31°
NNE
21°
NNE

N
10°
N

Daily Forecast

Date High Low Precip. Humidity
Today
Jan 25

Clear
5 °F
-17 °F
0%
80%
Wednesday
Jan 26

Clouds
33 °F
10 °F
0%
78%
Thursday
Jan 27

Snow
23 °F
6 °F
28%
91%
Friday
Jan 28

Clouds
24 °F
5 °F
0%
90%
Saturday
Jan 29

Clouds
28 °F
14 °F
0%
84%
Sunday
Jan 30

Clouds
34 °F
15 °F
0%
84%
Monday
Jan 31

Clouds
27 °F
18 °F
9%
91%
Tuesday
Feb 1

Snow
20 °F
-8 °F
32%
88%
Wednesday
Feb 2

Clouds
-5 °F
-13 °F
0%
90%
Thursday
Feb 3

Snow
6 °F
-13 °F
20%
80%
Friday
Feb 4

Clouds
-10 °F
-21 °F
0%
88%
Saturday
Feb 5

Snow
22 °F
-20 °F
77%
81%
Sunday
Feb 6

Clouds
-8 °F
-22 °F
0%
83%
Monday
Feb 7

Clouds
6 °F
-19 °F
0%
91%
Tuesday
Feb 8

Clouds
-10 °F
-25 °F
0%
80%
Wednesday
Feb 9

Clouds
6 °F
-15 °F
0%
79%

Temperature 8-14 Day Outlook



Precipitation 8-14 Day Outlook




Quick Links
Lake Sakakawea News
Lake Sakakawea Photos
Lake Sakakawea Videos




About Us
Contact Us
Site Map
Search Site
Advertise With Us
   
Sakakawea.USLakes.info
THE LAKE SAKAKAWEA WEBSITE

Copyright 2022, Lakes Online
Privacy    |    Legal